Tracking 27422 objects as of 29-May-2023
HD Live streaming from Space Station
objects crossing your sky now

ATLAS 5 CENTAUR R/B

Track ATLAS 5 CENTAUR R/B now!


NORAD ID: 39505
Int'l Code: 2014-004B
Perigee: 4,794.1 km
Apogee: 34,557.0 km
Inclination: 24.4 °
Period: 697.2 minutes
Semi major axis: 26046 km
RCS: Unknown
Launch date: January 23, 2014
Source: United States (US)
Launch site: AIR FORCE EASTERN TEST RANGE (AFETR)

Note: This is a ROCKET BODY
Your satellite tracking list
Your tracking list is empty




NASA's NSSDC Master Catalog

Two Line Element Set (TLE):
1 39505U 14004B   23137.17339853 -.00000073  00000-0  00000-0 0  9997
2 39505  24.3871 187.5593 5713391 332.0226   6.6084  2.06527076 70268
Source of the keplerian elements: AFSPC